Погода в Серебряном Боре

Россия / Республика Саха (Якутия)     56°40′31″N   124°50′15″E
темп.,
°C
ветер,
м/с
пор.,
м/с
влажн.,
%
обл.,
%
осадки,
мм/ч
давл.,
гПа
погр.,
м
19 сентября, вс
вс1900:00+1зсз3986100 0.1 1018411
03:000зсз249096 0.1 101898
06:00−2з119351 0.0 101910
09:00+3сз367164 0.0 1018862
12:00+7сз365061 0.0 10151605
15:00+9сз474364 0.0 10131852
18:00+6сз226299 0.0 101323
21:00+3ююз116771 0.0 101410
20 сентября, пн
пн2000:00+1ююз11805 0.0 101410
03:000ююз118797 0.0 101410
06:000ю1183100 0.0 101410
09:00+5всв006696 0.0 1014158
12:00+8св1156100 0.0 1012657
15:00+10ссв135581 0.0 10111078
18:00+7св117873 0.0 101313
21:00+4ююз118996 0.0 101410
21 сентября, вт
вт2100:00+5ююв1185100 0.0 101411
03:00+4юв11885 0.0 101410
06:00+2юв11935 0.0 101410
09:00+7юв23762 0.0 1013269
12:00+13ююв35583 0.0 1010859
15:00+15ююв45566 0.0 10081329
18:00+11ююв37745 0.0 1009206
21:00+6ююв239156 0.0 101249
22 сентября, ср
ср2200:00+8юв2376100 0.0 101266
03:00+8ююв287999 0.0 1013261
06:00+5ююв2491100 0.0 101474
09:00+9ююв5117676 0.0 1014683
12:00+12ююв696299 0.0 10131090
15:00+13ююв585896 0.0 10141376
18:00+10ююв3870100 0.0 1015367
21:00+7юв2887100 1.6 1018349
23 сентября, чт
чт2300:00+5ююв2289100 0.0 101935
03:00+6ююв258793 0.0 1020127
06:00+4ююв2587100 0.0 102186
09:00+7ююв3117484 0.0 1020501
12:00+10ююв51059100 0.0 1018966
15:00+11ююв5860100 0.0 10181088
18:00+9ююв4971100 0.0 1019558
21:00+7ююв2693100 2.1 1020303